TimeEST,TemperatureF,Dew PointF,Humidity,Sea Level PressureIn,VisibilityMPH,Wind Direction,Wind SpeedMPH,Gust SpeedMPH,PrecipitationIn,Events,Conditions,WindDirDegrees,DateUTC
12:52 AM,34.0,30.0,85,29.57,10.0,NNW,12.7,24.2,0.00,,Overcast,330,2012-12-28 05:52:00
1:52 AM,34.0,30.0,85,29.62,7.0,NW,10.4,19.6,0.00,Snow,Light Snow,310,2012-12-28 06:52:00
2:52 AM,34.0,28.0,79,29.65,10.0,WNW,8.1,26.5,0.00,,Overcast,290,2012-12-28 07:52:00
3:52 AM,33.1,27.0,78,29.69,10.0,WNW,12.7,24.2,N/A,,Overcast,300,2012-12-28 08:52:00
4:34 AM,32.0,24.8,75,29.70,10.0,WNW,10.4,21.9,N/A,,Mostly Cloudy,290,2012-12-28 09:34:00
4:52 AM,32.0,25.0,75,29.72,10.0,WNW,13.8,21.9,N/A,,Scattered Clouds,290,2012-12-28 09:52:00
5:09 AM,32.0,24.8,75,29.72,10.0,WNW,10.4,24.2,N/A,,Mostly Cloudy,300,2012-12-28 10:09:00
5:52 AM,30.9,24.1,76,29.75,10.0,WNW,8.1,23.0,N/A,,Overcast,300,2012-12-28 10:52:00
6:52 AM,30.9,23.0,72,29.78,10.0,WNW,12.7,19.6,N/A,,Overcast,300,2012-12-28 11:52:00
7:52 AM,32.0,23.0,69,29.81,10.0,WNW,12.7,25.3,N/A,,Overcast,300,2012-12-28 12:52:00
9:52 AM,33.1,23.0,66,29.88,10.0,NNW,9.2,18.4,N/A,,Overcast,330,2012-12-28 14:52:00
10:52 AM,35.1,23.0,61,29.88,10.0,NW,9.2,20.7,N/A,,Mostly Cloudy,320,2012-12-28 15:52:00
11:00 AM,35.6,23.0,60,29.87,10.0,WNW,10.4,24.2,N/A,,Scattered Clouds,290,2012-12-28 16:00:00
11:52 AM,35.1,23.0,61,29.88,10.0,WNW,11.5,21.9,N/A,,Clear,300,2012-12-28 16:52:00
12:52 PM,36.0,23.0,59,29.88,10.0,WNW,11.5,21.9,N/A,,Clear,290,2012-12-28 17:52:00
1:52 PM,37.0,23.0,57,29.89,10.0,NW,6.9,19.6,N/A,,Clear,310,2012-12-28 18:52:00
3:52 PM,35.1,24.1,64,29.94,10.0,WNW,6.9,-,N/A,,Clear,290,2012-12-28 20:52:00
4:52 PM,32.0,23.0,69,29.96,10.0,Calm,Calm,-,N/A,,Clear,0,2012-12-28 21:52:00
5:52 PM,30.0,23.0,75,29.98,10.0,WSW,3.5,-,N/A,,Clear,250,2012-12-28 22:52:00
6:52 PM,30.0,23.0,75,30.00,10.0,West,4.6,-,N/A,,Clear,260,2012-12-28 23:52:00
7:52 PM,28.9,23.0,78,30.01,10.0,West,3.5,-,N/A,,Clear,270,2012-12-29 00:52:00
8:52 PM,33.1,24.1,70,30.00,10.0,Variable,5.8,-,N/A,,Clear,0,2012-12-29 01:52:00
9:52 PM,34.0,24.1,67,30.01,10.0,Variable,4.6,-,N/A,,Clear,0,2012-12-29 02:52:00
11:52 PM,28.0,23.0,81,30.01,10.0,Calm,Calm,-,N/A,,Clear,0,2012-12-29 04:52:00